Weather History for KABI - April, 2014

Change the Weather History Date:

Saturday, April 26, 2014

  Actual Average Record
Temperature  
Mean Temperature 81 °F 68 °F  
Max Temperature 93 °F 80 °F 96 °F (1984)
Min Temperature 68 °F 55 °F 37 °F (1907)
Degree Days  
Heating Degree Days 0 2  
Month to date heating degree days 88 105  
Since 1 July heating degree days 2790 2536  
Cooling Degree Days 16 4  
Month to date cooling degree days 139 78  
Year to date cooling degree days 183 112  
Growing Degree Days 30 (Base 50)    
Moisture  
Dew Point 58 °F    
Average Humidity 50    
Maximum Humidity 76    
Minimum Humidity 24    
Precipitation  
Precipitation 0.00 in 0.07 in 3.39 in (1914)
Month to date precipitation 0.61 1.35  
Year to date precipitation 1.77 5.47  
Sea Level Pressure  
Sea Level Pressure 29.61 in    
Wind  
Wind Speed 20 mph (SSE)    
Max Wind Speed 31 mph    
Max Gust Speed 40 mph    
Visibility 10 miles    
Events Rain    
T = Trace of Precipitation, MM = Missing Value Source: NWS Daily Summary

Daily Weather History Graph

Daily Weather History Graph

Search for Another Location

Airport or City:

Trip Planner

Search our weather history database for the weather conditions in past years. The results will help you decide how hot, cold, wet, or windy it might be!

Date:

Astronomy

Apr. 26, 2014 Rise Set
Actual Time 6:57 AM CDT 8:16 PM CDT
Civil Twilight 6:31 AM CDT 8:42 PM CDT
Nautical Twilight 6:00 AM CDT 9:13 PM CDT
Astronomical Twilight 5:28 AM CDT 9:45 PM CDT
Moon 5:12 AM CDT (4/26) 5:54 PM CDT (4/26)
Length of Visible Light 14h 10m
Length of Day
13h 19m
Waning Crescent, 8% of the Moon is Illuminated
Apr 26
Waning Crescent
Apr 29
New
May 6
First Quarter
May 14
Full
May 21
Last Quarter

Hourly Weather History & Observations

Time (CDT) Temp. Heat Index Dew Point Humidity Pressure Visibility Wind Dir Wind Speed Gust Speed Precip Events Conditions
12:52 AM 75.0 °F - 54.0 °F 48% 29.74 in 10.0 mi SSE 20.7 mph 26.5 mph N/A   Clear
1:52 AM 73.0 °F - 55.9 °F 55% 29.72 in 10.0 mi South 16.1 mph - N/A   Clear
2:52 AM 72.0 °F - 57.0 °F 59% 29.69 in 10.0 mi SSE 23.0 mph 29.9 mph N/A   Clear
3:52 AM 70.0 °F - 57.9 °F 65% 29.69 in 10.0 mi SSE 15.0 mph - N/A   Clear
4:52 AM 69.1 °F - 59.0 °F 70% 29.68 in 10.0 mi SSE 15.0 mph - N/A   Clear
5:52 AM 68.0 °F - 60.1 °F 76% 29.66 in 10.0 mi SSE 20.7 mph 27.6 mph N/A   Clear
6:52 AM 68.0 °F - 60.1 °F 76% 29.66 in 10.0 mi SSE 19.6 mph - N/A   Clear
7:52 AM 69.1 °F - 60.1 °F 73% 29.67 in 10.0 mi South 19.6 mph 26.5 mph N/A   Clear
8:52 AM 73.9 °F - 61.0 °F 64% 29.68 in 10.0 mi South 20.7 mph 27.6 mph N/A   Clear
9:52 AM 73.9 °F - 61.0 °F 64% 29.68 in 9.0 mi South 21.9 mph 31.1 mph N/A   Clear
10:52 AM 79.0 °F - 60.1 °F 52% 29.67 in 10.0 mi South 17.3 mph 32.2 mph N/A   Clear
11:52 AM 82.0 °F 82.4 °F 60.1 °F 47% 29.66 in 10.0 mi South 20.7 mph 28.8 mph N/A   Clear
12:52 PM 84.9 °F 84.2 °F 57.9 °F 40% 29.63 in 10.0 mi South 16.1 mph 29.9 mph N/A   Clear
1:52 PM 88.0 °F 86.5 °F 55.9 °F 34% 29.59 in 10.0 mi South 16.1 mph 26.5 mph N/A   Clear
2:52 PM 93.0 °F - 52.0 °F 25% 29.55 in 10.0 mi South 17.3 mph 29.9 mph N/A   Clear
3:52 PM 93.0 °F 90.6 °F 53.1 °F 26% 29.52 in 10.0 mi South 18.4 mph 29.9 mph N/A   Clear
4:52 PM 91.0 °F 89.2 °F 55.9 °F 30% 29.50 in 10.0 mi SSE 24.2 mph 29.9 mph N/A   Clear
5:52 PM 87.1 °F 86.5 °F 59.0 °F 39% 29.49 in 10.0 mi SSE 24.2 mph 33.4 mph N/A   Clear
6:52 PM 86.0 °F 85.4 °F 59.0 °F 40% 29.49 in 10.0 mi SSE 29.9 mph 38.0 mph N/A   Clear
7:52 PM 82.9 °F 82.6 °F 57.9 °F 42% 29.48 in 10.0 mi SSE 23.0 mph 33.4 mph N/A   Clear
8:52 PM 81.0 °F 81.6 °F 60.1 °F 49% 29.49 in 10.0 mi South 24.2 mph 33.4 mph N/A   Clear
9:52 PM 77.0 °F - 62.1 °F 60% 29.50 in 10.0 mi SSE 26.5 mph 35.7 mph 0.00 in Rain Light Rain
10:52 PM 75.0 °F - 61.0 °F 62% 29.52 in 10.0 mi SSE 18.4 mph - 0.00 in   Clear
11:52 PM 75.0 °F - 62.1 °F 64% 29.50 in 10.0 mi South 17.3 mph - N/A   Clear